GW3945 Weather Reports


Display with metric or nautical units.
time (UTC)temp
F
wind
direction
speed
MPH
gust
MPH
rain 1hr
in
rain 24hr
in
rain mn
in
humidity
%
barometer
mb
20260904165157 93 224 0.0 0.0 0.00 0.00 0.00 60 1015.5
20260904164652 93 229 0.0 0.0 0.00 0.00 0.00 61 1015.6
20260904164147 92 215 0.0 0.0 0.00 0.00 0.00 65 1015.6
20260904163642 92 214 0.0 0.0 0.00 0.00 0.00 65 1015.6
20260904163132 91 224 0.0 0.0 0.00 0.00 0.00 65 1015.7
20260904162631 91 216 0.0 0.0 0.00 0.00 0.00 67 1015.7
20260904162126 91 224 0.0 0.0 0.00 0.00 0.00 69 1015.8
20260904161622 91 215 0.0 0.0 0.00 0.00 0.00 70 1015.6
20260904161116 91 215 0.0 0.0 0.00 0.00 0.00 69 1015.8
20260904160612 90 222 0.0 0.0 0.00 0.00 0.00 70 1015.8
20260904160108 90 225 0.0 0.0 0.00 0.00 0.00 71 1015.9
20260904155607 90 216 0.0 0.0 0.00 0.00 0.00 71 1015.6
20260904155056 89 214 0.0 0.0 0.00 0.00 0.00 73 1016.0
20260904154550 90 218 0.0 0.0 0.00 0.00 0.00 72 1015.7
20260904154045 90 215 0.0 0.0 0.00 0.00 0.00 73 1015.9
20260904153544 89 236 0.0 0.0 0.00 0.00 0.00 73 1015.9
20260904153041 89 236 0.0 1.0 0.00 0.00 0.00 72 1015.8
20260904152536 89 222 0.0 0.0 0.00 0.00 0.00 75 1015.9
20260904152032 89 224 0.0 0.0 0.00 0.00 0.00 73 1015.9
20260904151526 89 222 0.0 0.0 0.00 0.00 0.00 75 1016.0
20260904151021 89 222 0.0 0.0 0.00 0.00 0.00 75 1015.8
20260904150520 89 223 0.0 0.0 0.00 0.00 0.00 77 1015.7
20260904150015 89 223 0.0 0.0 0.00 0.00 0.00 75 1015.8
20260904145510 89 222 0.0 0.0 0.00 0.00 0.00 75 1016.0
20260904145005 88 224 0.0 0.0 0.00 0.00 0.00 75 1015.7
20260904144501 88 225 0.0 0.0 0.00 0.00 0.00 77 1015.8
20260904143956 87 225 0.0 0.0 0.00 0.00 0.00 78 1015.6
20260904143452 86 223 0.0 0.0 0.00 0.00 0.00 78 1015.8
20260904142949 86 225 0.0 0.0 0.00 0.00 0.00 78 1015.6
20260904142445 84 229 0.0 0.0 0.00 0.00 0.00 79 1015.7
20260904141944 84 226 0.0 0.0 0.00 0.00 0.00 85 1015.5
20260904141439 84 226 0.0 0.0 0.00 0.00 0.00 82 1015.6
20260904140936 83 225 0.0 0.0 0.00 0.00 0.00 86 1015.7
20260904140435 82 225 0.0 0.0 0.00 0.00 0.00 86 1015.7
20260904135935 82 225 0.0 0.0 0.00 0.00 0.00 87 1015.8
20260904135434 82 225 0.0 0.0 0.00 0.00 0.00 87 1015.5
20260904134931 81 230 0.0 0.0 0.00 0.00 0.00 87 1015.6
20260904134431 80 226 0.0 0.0 0.00 0.00 0.00 88 1015.5
20260904133925 80 224 0.0 0.0 0.00 0.00 0.00 89 1015.6
20260904133420 80 224 0.0 0.0 0.00 0.00 0.00 89 1015.6
20260904132916 79 224 0.0 0.0 0.00 0.00 0.00 90 1015.5
20260904132410 79 224 0.0 0.0 0.00 0.00 0.00 90 1015.6
20260904131910 78 224 0.0 0.0 0.00 0.00 0.00 91 1015.5
20260904131400 78 224 0.0 0.0 0.00 0.00 0.00 91 1015.5
20260904130855 78 224 0.0 0.0 0.00 0.00 0.00 91 1015.5
20260904130355 78 224 0.0 0.0 0.00 0.00 0.00 92 1015.7
20260904125850 77 224 0.0 0.0 0.00 0.00 0.00 93 1015.3
20260904125346 76 224 0.0 0.0 0.00 0.00 0.00 94 1015.3
20260904124844 75 224 0.0 0.0 0.00 0.00 0.00 94 1015.3
20260904124341 75 224 0.0 0.0 0.00 0.00 0.00 95 1015.3
20260904123836 75 224 0.0 0.0 0.00 0.00 0.00 95 1015.1
20260904123332 75 224 0.0 0.0 0.00 0.00 0.00 95 1015.4
20260904122827 74 225 0.0 0.0 0.00 0.00 0.00 95 1015.2
20260904122327 74 225 0.0 0.0 0.00 0.00 0.00 96 1015.2
20260904121822 74 225 0.0 0.0 0.00 0.00 0.00 96 1015.1
20260904121318 74 225 0.0 0.0 0.00 0.00 0.00 96 1015.2
20260904120815 74 226 0.0 0.0 0.00 0.00 0.00 96 1015.0
20260904120310 74 225 0.0 0.0 0.00 0.00 0.00 95 1015.2
20260904115804 74 225 0.0 0.0 0.00 0.00 0.00 95 1015.2
20260904115300 74 225 0.0 0.0 0.00 0.00 0.00 95 1014.9
20260904114754 74 225 0.0 0.0 0.00 0.00 0.00 96 1015.0
20260904114254 74 225 0.0 0.0 0.00 0.00 0.00 96 1014.9
20260904113750 74 226 0.0 0.0 0.00 0.00 0.00 96 1014.8
20260904113248 74 229 0.0 0.0 0.00 0.00 0.00 96 1014.8
20260904112743 74 227 0.0 0.0 0.00 0.00 0.00 96 1014.7
20260904112239 74 227 0.0 0.0 0.00 0.00 0.00 96 1014.5
20260904111735 73 232 0.0 0.0 0.00 0.00 0.00 96 1014.5
20260904111231 73 227 0.0 0.0 0.00 0.00 0.00 96 1014.6
20260904110726 73 226 0.0 0.0 0.00 0.00 0.00 96 1014.5
20260904110225 74 226 0.0 0.0 0.00 0.00 0.00 95 1014.6
20260904105720 74 226 0.0 0.0 0.00 0.00 0.00 96 1014.3
20260904105214 74 226 0.0 0.0 0.00 0.00 0.00 96 1014.5
20260904104710 74 226 0.0 0.0 0.00 0.00 0.00 96 1014.4
20260904104206 74 226 0.0 0.0 0.00 0.00 0.00 96 1014.2
20260904103702 74 226 0.0 0.0 0.00 0.00 0.00 96 1014.2
20260904103157 74 226 0.0 0.0 0.00 0.00 0.00 96 1014.2
20260904102653 74 226 0.0 0.0 0.00 0.00 0.00 96 1014.2
20260904102148 74 226 0.0 0.0 0.00 0.00 0.00 96 1014.3
20260904101645 74 226 0.0 0.0 0.00 0.00 0.00 96 1014.1
20260904101140 74 226 0.0 0.0 0.00 0.00 0.00 96 1014.1
20260904100636 74 226 0.0 0.0 0.00 0.00 0.00 95 1014.3
20260904100131 74 226 0.0 0.0 0.00 0.00 0.00 95 1014.0
20260904095626 74 226 0.0 0.0 0.00 0.00 0.00 95 1014.0
20260904095125 74 226 0.0 0.0 0.00 0.00 0.00 95 1013.7
20260904094620 75 226 0.0 0.0 0.00 0.00 0.00 95 1014.0
20260904094115 75 227 0.0 0.0 0.00 0.00 0.00 95 1013.9
20260904093612 75 225 0.0 0.0 0.00 0.00 0.00 95 1013.8
20260904093107 75 224 0.0 0.0 0.00 0.00 0.00 95 1013.7
20260904092603 75 224 0.0 0.0 0.00 0.00 0.00 94 1013.9
20260904092059 75 225 0.0 0.0 0.00 0.00 0.00 94 1013.7
20260904091555 75 225 0.0 0.0 0.00 0.00 0.00 94 1014.2
20260904091054 75 230 0.0 0.0 0.00 0.00 0.00 94 1014.0
20260904090550 75 226 0.0 0.0 0.00 0.00 0.00 94 1014.1
20260904090045 75 224 0.0 0.0 0.00 0.00 0.00 94 1013.9
20260904085540 75 224 0.0 0.0 0.00 0.00 0.00 94 1013.8
20260904085039 75 235 0.0 0.0 0.00 0.00 0.00 95 1014.0
20260904084536 75 225 0.0 0.0 0.00 0.00 0.00 95 1014.0
20260904084032 75 225 0.0 0.0 0.00 0.00 0.00 95 1013.9
20260904083527 75 225 0.0 0.0 0.00 0.00 0.00 94 1014.0
20260904083023 75 225 0.0 0.0 0.00 0.00 0.00 94 1014.0
20260904082518 75 225 0.0 0.0 0.00 0.00 0.00 94 1014.1
20260904082013 75 225 0.0 0.0 0.00 0.00 0.00 94 1014.3
20260904081508 75 225 0.0 0.0 0.00 0.00 0.00 94 1014.0
20260904081004 75 231 0.0 0.0 0.00 0.00 0.00 93 1014.0
20260904080459 76 224 0.0 0.0 0.00 0.00 0.00 93 1014.0
20260904075955 76 224 0.0 0.0 0.00 0.00 0.00 93 1014.0
20260904075451 76 224 0.0 0.0 0.00 0.00 0.00 92 1013.8
20260904074950 76 242 0.0 0.0 0.00 0.00 0.00 92 1013.7
20260904074445 76 224 0.0 0.0 0.00 0.00 0.00 92 1013.9
20260904073940 77 224 0.0 0.0 0.00 0.00 0.00 92 1013.8
20260904073435 77 226 0.0 0.0 0.00 0.00 0.00 91 1013.8
20260904072925 76 230 0.0 0.0 0.00 0.00 0.00 92 1013.8
20260904072421 76 224 0.0 0.0 0.00 0.00 0.00 92 1013.9
20260904071916 77 225 0.0 0.0 0.00 0.00 0.00 92 1013.8
20260904071412 77 225 0.0 0.0 0.00 0.00 0.00 92 1013.8
20260904070906 77 225 0.0 0.0 0.00 0.00 0.00 91 1014.0
20260904070405 76 230 0.0 0.0 0.00 0.00 0.00 89 1013.8
20260904065904 77 226 0.0 0.0 0.00 0.00 0.00 92 1013.9
20260904065401 77 228 0.0 0.0 0.00 0.00 0.00 92 1014.1
20260904064900 77 223 0.0 0.0 0.00 0.00 0.00 92 1014.1
20260904064356 77 223 0.0 0.0 0.00 0.00 0.00 92 1014.1
20260904063852 77 223 0.0 0.0 0.00 0.00 0.00 91 1014.2
20260904063349 76 223 0.0 0.0 0.00 0.00 0.00 90 1014.4
20260904062844 76 222 0.0 0.0 0.00 0.00 0.00 93 1014.3
20260904062340 76 222 0.0 0.0 0.00 0.00 0.00 93 1014.1
20260904061836 76 222 0.0 0.0 0.00 0.00 0.00 93 1014.2
20260904061331 76 223 0.0 0.0 0.00 0.00 0.00 93 1014.1
20260904060827 76 222 0.0 0.0 0.00 0.00 0.00 93 1014.3
20260904060323 76 221 0.0 0.0 0.00 0.00 0.00 94 1014.4
20260904055818 77 223 0.0 0.0 0.00 0.00 0.00 92 1014.2
20260904055314 77 223 0.0 0.0 0.00 0.00 0.00 92 1014.1
20260904054809 77 223 0.0 0.0 0.00 0.00 0.00 91 1014.1
20260904054305 77 224 0.0 0.0 0.00 0.00 0.00 91 1014.0
20260904053800 78 236 0.0 0.0 0.00 0.00 0.00 91 1014.1
20260904053300 78 221 0.0 0.0 0.00 0.00 0.00 91 1014.1
20260904052756 78 221 0.0 0.0 0.00 0.00 0.00 90 1014.1
20260904052252 78 221 0.0 0.0 0.00 0.00 0.00 90 1014.0
20260904051748 78 221 0.0 0.0 0.00 0.00 0.00 89 1014.2
20260904051243 78 221 0.0 0.0 0.00 0.00 0.00 88 1014.2
20260904050738 78 229 0.0 0.0 0.00 0.00 0.00 90 1014.2
20260904050235 78 224 0.0 0.0 0.00 0.00 0.00 90 1014.4
20260904045735 78 209 0.0 0.0 0.00 0.00 0.00 91 1014.4
20260904045230 78 204 0.0 0.0 0.00 0.00 0.00 92 1014.5
20260904044724 78 204 0.0 0.0 0.00 0.00 0.00 91 1014.3
20260904044221 78 204 0.0 0.0 0.00 0.00 0.00 91 1014.3
20260904043717 78 226 0.0 0.0 0.00 0.00 0.00 91 1014.5
20260904043213 78 226 0.0 0.0 0.00 0.00 0.00 90 1014.2
20260904042708 78 229 0.0 0.0 0.00 0.00 0.00 89 1014.4
20260904042205 79 227 0.0 0.0 0.00 0.00 0.00 90 1014.3
20260904041658 79 229 0.0 0.0 0.00 0.00 0.00 89 1014.6
20260904041155 79 229 0.0 0.0 0.00 0.00 0.00 90 1014.3
20260904040651 80 225 0.0 0.0 0.00 0.00 0.00 89 1014.3
20260904040146 80 226 0.0 0.0 0.00 0.00 0.00 88 1014.5
20260904035642 80 226 0.0 0.0 0.00 0.00 0.00 87 1014.6
20260904035137 80 253 0.0 0.0 0.00 0.00 0.00 84 1014.5
20260904034636 79 226 0.0 0.0 0.00 0.00 0.00 88 1014.6
20260904034132 79 226 0.0 0.0 0.00 0.00 0.00 90 1014.5
20260904033627 80 226 0.0 0.0 0.00 0.00 0.00 90 1014.5
20260904033125 80 226 0.0 0.0 0.00 0.00 0.00 88 1014.8
20260904032620 80 226 0.0 0.0 0.00 0.00 0.00 88 1014.7
20260904032119 80 226 0.0 0.0 0.00 0.00 0.00 87 1014.7
20260904031618 81 226 0.0 0.0 0.00 0.00 0.00 86 1014.6
20260904031114 81 226 0.0 0.0 0.00 0.00 0.00 84 1014.8
20260904030610 80 225 0.0 0.0 0.00 0.00 0.00 85 1014.7
20260904030105 81 225 0.0 0.0 0.00 0.00 0.00 87 1014.7
20260904025601 81 225 0.0 0.0 0.00 0.00 0.00 87 1014.8
20260904025056 81 227 0.0 0.0 0.00 0.00 0.00 80 1014.8
20260904024551 80 227 0.0 0.0 0.00 0.00 0.00 83 1014.7
20260904024047 80 222 0.0 0.0 0.00 0.00 0.00 90 1014.6
20260904023543 80 227 0.0 0.0 0.00 0.00 0.00 87 1014.5
20260904023039 81 226 0.0 0.0 0.00 0.00 0.00 88 1014.5
20260904022539 81 226 0.0 0.0 0.00 0.00 0.00 88 1014.5
20260904022036 81 226 0.0 0.0 0.00 0.00 0.00 88 1014.5
20260904021531 81 226 0.0 0.0 0.00 0.00 0.00 88 1014.5
20260904021026 82 226 0.0 0.0 0.00 0.00 0.00 88 1014.5
20260904020526 82 226 0.0 0.0 0.00 0.00 0.00 87 1014.2
20260904020021 82 226 0.0 0.0 0.00 0.00 0.00 86 1014.2
20260904015515 82 226 0.0 0.0 0.00 0.00 0.00 85 1014.3
20260904015014 82 226 0.0 0.0 0.00 0.00 0.00 86 1014.0
20260904014509 82 226 0.0 0.0 0.00 0.00 0.00 87 1014.1
20260904014005 82 226 0.0 0.0 0.00 0.00 0.00 86 1014.3
20260904013501 83 226 0.0 0.0 0.00 0.00 0.00 86 1013.9
20260904012957 83 226 0.0 0.0 0.00 0.00 0.00 86 1014.1
20260904012456 83 227 0.0 0.0 0.00 0.00 0.00 81 1013.9
20260904011950 83 224 0.0 0.0 0.00 0.00 0.00 83 1014.1
20260904011445 83 224 0.0 0.0 0.00 0.00 0.00 85 1014.0
20260904010941 84 224 0.0 0.0 0.00 0.00 0.00 84 1013.9
20260904010437 84 228 0.0 0.0 0.00 0.00 0.00 83 1014.0
20260904005931 84 225 0.0 0.0 0.00 0.00 0.00 84 1014.0
20260904005422 84 225 0.0 0.0 0.00 0.00 0.00 84 1013.7
20260904004921 85 226 0.0 0.0 0.00 0.00 0.00 81 1013.7
20260904004418 86 226 0.0 0.0 0.00 0.00 0.00 79 1013.7
20260904003913 86 226 0.0 0.0 0.00 0.00 0.00 78 1013.9
20260904003409 86 226 0.0 0.0 0.00 0.00 0.00 77 1013.8
20260904002903 86 226 0.0 0.0 0.00 0.00 0.00 75 1013.4
20260904002400 86 226 0.0 0.0 0.00 0.00 0.00 74 1013.6
20260904001858 86 227 0.0 0.0 0.00 0.00 0.00 75 1013.5
20260904001354 87 225 0.0 0.0 0.00 0.00 0.00 77 1013.4
20260904000849 87 225 0.0 0.0 0.00 0.00 0.00 77 1013.5
20260904000348 88 225 0.0 0.0 0.00 0.00 0.00 77 1013.4
20260903235848 88 225 0.0 0.0 0.00 0.00 0.00 74 1013.3
20260903235345 89 225 0.0 0.0 0.00 0.00 0.00 74 1013.5
20260903234844 89 225 0.0 0.0 0.00 0.00 0.00 74 1013.6
20260903234340 89 225 0.0 0.0 0.00 0.00 0.00 75 1013.3
20260903233836 90 225 0.0 0.0 0.00 0.00 0.00 75 1013.2
20260903233332 90 225 0.0 0.0 0.00 0.00 0.00 74 1013.3
20260903232831 91 225 0.0 0.0 0.00 0.00 0.00 73 1013.3
20260903232327 91 225 0.0 0.0 0.00 0.00 0.00 73 1013.3
20260903231826 92 221 0.0 0.0 0.00 0.00 0.00 70 1013.0
20260903231321 92 221 0.0 0.0 0.00 0.00 0.00 67 1013.2
20260903230817 92 221 0.0 0.0 0.00 0.00 0.00 63 1012.8
20260903230312 93 221 0.0 0.0 0.00 0.00 0.00 62 1012.7
20260903225808 93 221 0.0 0.0 0.00 0.00 0.00 57 1012.7
20260903225306 94 221 0.0 0.0 0.00 0.00 0.00 59 1012.7
20260903224801 94 221 0.0 0.0 0.00 0.00 0.00 61 1012.8
20260903224256 94 221 0.0 0.0 0.00 0.00 0.00 60 1012.8
20260903223751 95 223 0.0 0.0 0.00 0.00 0.00 55 1012.6
20260903223250 95 221 0.0 0.0 0.00 0.00 0.00 48 1012.8
20260903222745 96 221 0.0 0.0 0.00 0.00 0.00 48 1012.9
20260903222244 96 221 0.0 0.0 0.00 0.00 0.00 51 1012.9
20260903221739 96 221 0.0 0.0 0.00 0.00 0.00 50 1012.9
20260903221237 96 221 0.0 0.0 0.00 0.00 0.00 48 1013.3
20260903220736 96 221 0.0 0.0 0.00 0.00 0.00 49 1013.0
20260903220231 97 221 0.0 0.0 0.00 0.00 0.00 54 1012.9
20260903215730 97 221 0.0 0.0 0.00 0.00 0.00 54 1012.9
20260903215226 98 222 0.0 0.0 0.00 0.00 0.00 52 1012.9
20260903214723 99 222 0.0 0.0 0.00 0.00 0.00 50 1013.2
20260903214220 101 228 0.0 0.0 0.00 0.00 0.00 45 1013.2
20260903213714 101 224 0.0 0.0 0.00 0.00 0.00 46 1013.2
20260903213211 100 227 0.0 0.0 0.00 0.00 0.00 45 1013.2
20260903212706 100 228 0.0 0.0 0.00 0.00 0.00 47 1013.3
20260903212203 99 224 0.0 0.0 0.00 0.00 0.00 47 1013.0
20260903211701 99 225 0.0 0.0 0.00 0.00 0.00 46 1013.5
20260903211158 100 225 0.0 0.0 0.00 0.00 0.00 45 1013.5
20260903210654 99 226 0.0 0.0 0.00 0.00 0.00 46 1013.5
20260903210149 98 234 0.0 0.0 0.00 0.00 0.00 44 1013.7
20260903205649 96 217 0.0 0.0 0.00 0.00 0.00 49 1013.7
20260903205148 96 217 0.0 0.0 0.00 0.00 0.00 50 1013.8
20260903204644 96 226 0.0 0.0 0.00 0.00 0.00 49 1013.6
20260903204140 96 211 0.0 0.0 0.00 0.00 0.00 49 1013.7
20260903203635 95 211 0.0 0.0 0.00 0.00 0.00 48 1013.7
20260903203130 95 211 0.0 0.0 0.00 0.00 0.00 48 1013.9
20260903202625 95 211 0.0 0.0 0.00 0.00 0.00 49 1013.8
20260903202120 95 211 0.0 0.0 0.00 0.00 0.00 51 1013.9
20260903201614 95 211 0.0 0.0 0.00 0.00 0.00 49 1013.9
20260903201114 95 214 0.0 0.0 0.00 0.00 0.00 50 1014.3
20260903200609 96 217 0.0 0.0 0.00 0.00 0.00 52 1014.1
20260903200104 96 226 0.0 0.0 0.00 0.00 0.00 50 1014.0
20260903195600 96 212 0.0 0.0 0.00 0.00 0.00 49 1014.2
20260903195056 96 221 0.0 0.0 0.00 0.00 0.00 51 1014.4
20260903194551 96 223 0.0 0.0 0.00 0.00 0.00 50 1014.1
20260903194045 96 229 0.0 0.0 0.00 0.00 0.00 52 1014.2
20260903193542 96 249 2.0 2.0 0.00 0.00 0.00 51 1014.3
20260903193037 96 222 1.0 1.0 0.00 0.00 0.00 50 1014.6
20260903192534 96 226 0.0 0.0 0.00 0.00 0.00 51 1014.4
20260903192028 96 221 0.0 0.0 0.00 0.00 0.00 51 1014.3
20260903191525 95 226 0.0 0.0 0.00 0.00 0.00 50 1014.7
20260903191019 95 205 0.0 0.0 0.00 0.00 0.00 51 1014.5
20260903190513 95 229 0.0 0.0 0.00 0.00 0.00 50 1014.7
20260903190013 95 204 0.0 0.0 0.00 0.00 0.00 51 1014.5
20260903185508 95 254 0.0 0.0 0.00 0.00 0.00 51 1014.6
20260903185003 95 220 0.0 0.0 0.00 0.00 0.00 52 1014.9
20260903184500 95 221 0.0 0.0 0.00 0.00 0.00 52 1014.6
20260903183959 94 246 2.0 2.0 0.00 0.00 0.00 52 1014.9
20260903183454 95 231 0.0 0.0 0.00 0.00 0.00 51 1015.0
20260903182954 94 220 0.0 0.0 0.00 0.00 0.00 52 1014.8
20260903182452 94 235 3.0 3.0 0.00 0.00 0.00 51 1014.9
20260903181948 94 226 0.0 0.0 0.00 0.00 0.00 53 1015.0
20260903181441 94 217 0.0 0.0 0.00 0.00 0.00 52 1015.1
20260903180936 94 234 0.0 0.0 0.00 0.00 0.00 52 1015.3
20260903180431 93 197 0.0 0.0 0.00 0.00 0.00 53 1015.3
20260903175930 93 206 0.0 0.0 0.00 0.00 0.00 54 1015.4
20260903175425 93 205 0.0 0.0 0.00 0.00 0.00 54 1015.5
20260903174919 93 250 0.0 0.0 0.00 0.00 0.00 54 1015.6
20260903174415 93 203 0.0 0.0 0.00 0.00 0.00 56 1015.7
20260903173914 93 194 0.0 0.0 0.00 0.00 0.00 55 1015.6
20260903173415 93 211 0.0 0.0 0.00 0.00 0.00 55 1015.7
20260903172911 93 199 0.0 0.0 0.00 0.00 0.00 57 1015.7
20260903172411 93 190 0.0 0.0 0.00 0.00 0.00 59 1015.9
20260903171906 93 228 0.0 0.0 0.00 0.00 0.00 57 1015.9
20260903171401 92 207 0.0 0.0 0.00 0.00 0.00 59 1015.9
20260903170901 93 210 0.0 0.0 0.00 0.00 0.00 62 1015.8
20260903170356 92 221 0.0 0.0 0.00 0.00 0.00 60 1016.1
20260903165854 93 278 2.0 2.0 0.00 0.00 0.00 57 1015.8